Location: Newark
(7.0858°N, 171.3717°E)
Time: 13:05:02
(UTC+00:00)

A-11 Canister half - Pass Details

Date: 06 August 2021
Orbit: 1526 x 1683 km, 47.3° (Epoch: 26 September)

Event Time Altitude Azimuth Distance (km) Brightness Sun altitude
Rises 09:07:23 0° 283° (WNW) 4,742 12.6 -32.3°
Reaches altitude 10° 09:12:23 10° 261° (W) 3,730 11.6 -33.4°
Maximum altitude 09:17:05 15° 230° (SW) 3,340 11.0 -34.4°
Drops below altitude 10° 09:21:47 10° 199° (SSW) 3,694 10.9 -35.5°
Enters shadow 09:22:39 - 195° (SSW) 3,832 11.0 -35.7°
